Flag for France Weather past 2 weeks in Taiohae, Marquesas Islands, France

Now
82 °F

Scattered clouds.


Feels Like: 87 °F
Forecast: 78 / 81 °F
Wind: 12 mph from East

Location: Atuona

Current Time: Oct 22, 2014 at 4:17:24 PM

Latest Report: Oct 22, 2014 at 3:30 PM


Visibility: 19 mi

Pressure: 29.85 "Hg

Humidity: 71%

Dew point: 72 °F

Location of TaiohaeLocation

Historic Weather in Taiohae — Graph

°F

Taiohae temperature yesterday

Maximum temperature yesterday: 87 °F (at 1:30 PM)
Minimum temperature yesterday: 72 °F (at 12:30 AM)
Average temperature yesterday: 79 °F

Past Weeks' High & Low Weather Summary

 TemperatureHumidityPressure
High92 °F (Oct 11, 10:30 AM)95% (Oct 19, 4:30 AM)30.01 "Hg (Oct 19, 4:30 AM)
Low71 °F (Oct 11, 1:30 AM)44% (Oct 20, 12:30 PM)29.75 "Hg (Oct 10, 3:30 PM)
Average79 °F74%29.90 "Hg
* Reported Oct 7 2:30 PM — Oct 22 2:30 PM, Taiohae, Weather by CustomWeather, © 2014

Note: Actual official high and low records may vary slightly from our data, if they occured in-between our weather recording intervals... More about our weather records

Advertising

Taiohae weather history for previous 24 hours

 ConditionsComfort  
Time TempWeatherWind HumidityBarometerVisibility
2:30 PM
Oct 22
83 °FPassing clouds.17 mph67%29.85 "Hg5 mi
1:30 PM84 °FPassing clouds.17 mph68%29.87 "Hg19 mi
12:30 PM85 °FPassing clouds.17 mph68%29.88 "Hg16 mi
11:30 AM85 °FPassing clouds.18 mph69%29.91 "Hg17 mi
10:30 AM85 °FPassing clouds.17 mph67%29.93 "Hg17 mi
9:30 AM84 °FWarm.20 mph67%29.95 "HgN/A
8:30 AM83 °FPassing clouds.17 mph67%29.96 "Hg17 mi
7:30 AM82 °FPassing clouds.14 mph75%29.95 "Hg17 mi
6:30 AM76 °FPassing clouds.1 mph90%29.93 "Hg17 mi
5:30 AM73 °FPassing clouds.1 mph91%29.91 "Hg17 mi
4:30 AM74 °FMild.3 mph91%29.89 "HgN/A
3:30 AM75 °FMild.2 mph90%29.87 "HgN/A
2:30 AM74 °FMild.2 mph93%29.87 "HgN/A
1:30 AM74 °FMild.2 mph93%29.88 "HgN/A
12:30 AM74 °FMild.3 mph91%29.90 "HgN/A
11:30 PM
Oct 21
75 °FMild.2 mph92%29.91 "HgN/A
10:30 PM75 °FMild.1 mph91%29.93 "HgN/A
9:30 PM76 °FMild.2 mph88%29.94 "HgN/A
8:30 PM78 °FWarm.8 mph82%29.93 "HgN/A
7:30 PM79 °FWarm.13 mph79%29.91 "HgN/A
6:30 PM80 °FWarm.7 mph75%29.89 "HgN/A
5:30 PM80 °FWarm.6 mph75%29.86 "HgN/A
4:30 PM81 °FScattered clouds.10 mph71%29.84 "Hg19 mi
Weather by CustomWeather, © 2014

See weather overviewHow to use our weather pages